This is the latest recevied weather packets stored in our database for station/object N2UGS-WX. If no packets are shown the sender has not sent any weather packets the latest 10 day(s).
| Time | Temp. | Humidity | Pressure | Rain* | Wind** | Luminosity | Snow |
|---|---|---|---|---|---|---|---|
| 1777980302 | 18.33° C | 64% | 1002.4 hPa | 0 mm | - | - | - |
| 1777979403 | 17.78° C | 67% | 1002 hPa | 0 mm | - | - | - |
| 1777978802 | 17.78° C | 68% | 1002 hPa | 0 mm | - | - | - |
| 1777977302 | 17.22° C | 71% | 1001.7 hPa | 0 mm | - | - | - |
| 1777976403 | 16.67° C | 72% | 1001.4 hPa | 0.25 mm | - | - | - |
| 1777975802 | 16.67° C | 73% | 1001.4 hPa | 0.25 mm | - | - | - |
| 1777974902 | 16.11° C | 75% | 1001.4 hPa | 0.25 mm | - | - | - |
| 1777974001 | 15.56° C | 78% | 1001.4 hPa | 0.25 mm | - | - | - |
| 1777973102 | 15° C | 81% | 1001.4 hPa | 0 mm | - | - | - |
| 1777972202 | 15° C | 83% | 1001.4 hPa | 0 mm | - | - | - |
| 1777971302 | 13.33° C | 90% | 1001.4 hPa | 0 mm | - | - | - |
| 1777970342 | 12.78° C | 93% | 1001.4 hPa | 0 mm | - | - | - |
| 1777969443 | 12.78° C | 95% | 1001.4 hPa | 0 mm | - | - | - |
| 1777968542 | 12.22° C | 95% | 1001.7 hPa | 0 mm | - | - | - |
| 1777967702 | 12.22° C | 95% | 1001.7 hPa | 0 mm | - | - | - |
| 1777966801 | 12.22° C | 95% | 1002 hPa | 0 mm | - | - | - |
| 1777965902 | 11.67° C | 94% | 1002 hPa | 0 mm | - | - | - |
| 1777965242 | 12.22° C | 94% | 1002.4 hPa | 0 mm | - | - | - |
| 1777964402 | 12.22° C | 94% | 1002.7 hPa | 0 mm | - | - | - |
| 1777963742 | 12.22° C | 94% | 1002.7 hPa | 0 mm | - | - | - |
| 1777962902 | 12.22° C | 94% | 1004.1 hPa | 0.51 mm | - | - | - |
| 1777962002 | 12.22° C | 93% | 1003.7 hPa | 0.51 mm | - | - | - |
| 1777961102 | 12.22° C | 92% | 1003.4 hPa | 0.51 mm | - | - | - |
| 1777960202 | 12.78° C | 88% | 1004.1 hPa | 0.51 mm | - | - | - |
| 1777959302 | 14.44° C | 78% | 1003.7 hPa | 0 mm | - | - | - |
* Rain latest hour (hover to see other rain measurements)
** Current wind speed in m/s (hover to see current wind gust speed)